,,,PA_Meas_PMT16A,,PR_Meas_QMR101_102,,RH_Meas_QMH101,,SR_Meas_QMS101,,TA_Meas_QMH101,,GenWind,,GenWind,
date,time,status,PA,status,PR,status,RH,status,SR,status,TA,status,DirAvg,status,SpdAvg,
2008-09-02, 00:00:04,VALID,1009.1,VALID,0,VALID,92.142,VALID,0.105969,VALID,24.4717,VALID,360,VALID,0.252734,
2008-09-02, 00:01:04,VALID,1009.08,VALID,0,VALID,92.0733,VALID,0,VALID,24.4717,VALID,352,VALID,0.414844,
2008-09-02, 00:02:04,VALID,1009.08,VALID,0,VALID,92.0733,VALID,0.105969,VALID,24.4522,VALID,352,VALID,0.196875,
2008-09-02, 00:03:04,VALID,1009.06,VALID,0,VALID,91.9818,VALID,0,VALID,24.4522,VALID,346,VALID,0.221094,
2008-09-02, 00:04:04,VALID,1009.04,VALID,0,VALID,92.0733,VALID,0.105969,VALID,24.4522,VALID,346,VALID,0.283203,
2008-09-02, 00:05:04,VALID,1009.04,VALID,0,VALID,92.264,VALID,0.105969,VALID,24.4522,VALID,346,VALID,0.171094,
2008-09-02, 00:06:04,VALID,1009.04,VALID,0,VALID,92.3784,VALID,0.105969,VALID,24.4522,VALID,13,VALID,0.427734,
2008-09-02, 00:07:04,VALID,1009.06,VALID,0,VALID,92.386,VALID,0,VALID,24.4132,VALID,76,VALID,0.641406,
2008-09-02, 00:08:04,VALID,1009.06,VALID,0,VALID,92.4851,VALID,0.105969,VALID,24.4132,VALID,78,VALID,0.752344,
2008-09-02, 00:09:04,VALID,1009.07,VALID,0,VALID,92.5919,VALID,0,VALID,24.415,VALID,100,VALID,0.861328,
2008-09-02, 00:10:04,VALID,1009.08,VALID,0,VALID,92.6682,VALID,0,VALID,24.4132,VALID,99,VALID,0.806641,
2008-09-02, 00:11:04,VALID,1009.08,VALID,0,VALID,92.8283,VALID,0,VALID,24.454,VALID,98,VALID,0.868359,
2008-09-02, 00:12:04,VALID,1009.05,VALID,0,VALID,92.7749,VALID,0.105969,VALID,24.4113,VALID,105,VALID,1.07891,
2008-09-02, 00:13:04,VALID,1009.03,VALID,0,VALID,92.6224,VALID,0.105969,VALID,24.4327,VALID,91,VALID,0.809766,
2008-09-02, 00:14:04,VALID,1009.01,VALID,0,VALID,92.5919,VALID,0.105969,VALID,24.4522,VALID,97,VALID,0.775781,
2008-09-02, 00:15:04,VALID,1008.98,VALID,0,VALID,92.6529,VALID,0,VALID,24.4522,VALID,80,VALID,0.701172,
2008-09-02, 00:16:04,VALID,1008.96,VALID,0,VALID,92.5233,VALID,0.105969,VALID,24.4132,VALID,61,VALID,0.728125,
2008-09-02, 00:17:04,VALID,1008.93,VALID,0,VALID,92.6071,VALID,0,VALID,24.4132,VALID,62,VALID,0.516016,
2008-09-02, 00:18:04,VALID,1008.95,VALID,0,VALID,92.7597,VALID,0,VALID,24.3937,VALID,88,VALID,0.526172,
2008-09-02, 00:19:04,VALID,1008.94,VALID,0,VALID,93.0342,VALID,0,VALID,24.4327,VALID,86,VALID,0.783203,
2008-09-02, 00:20:04,VALID,1008.92,VALID,0,VALID,93.0571,VALID,0,VALID,24.415,VALID,97,VALID,1.40703,
2008-09-02, 00:21:04,VALID,1008.92,VALID,0,VALID,93.1333,VALID,0,VALID,24.3742,VALID,91,VALID,1.2125,
2008-09-02, 00:22:04,VALID,1008.89,VALID,0,VALID,93.0952,VALID,0,VALID,24.3352,VALID,96,VALID,1.40586,
2008-09-02, 00:23:04,VALID,1008.85,VALID,0,VALID,93.1943,VALID,0.105969,VALID,24.3158,VALID,87,VALID,1.29805,
2008-09-02, 00:24:04,VALID,1008.8,VALID,0,VALID,93.3316,VALID,0,VALID,24.3158,VALID,75,VALID,0.863281,
2008-09-02, 00:25:04,VALID,1008.77,VALID,0,VALID,93.4079,VALID,0,VALID,24.2768,VALID,79,VALID,0.705469,
2008-09-02, 00:26:04,VALID,1008.72,VALID,0,VALID,93.5146,VALID,0,VALID,24.2963,VALID,91,VALID,0.390625,
2008-09-02, 00:27:04,VALID,1008.76,VALID,0,VALID,93.4994,VALID,0,VALID,24.2768,VALID,97,VALID,1.27656,
2008-09-02, 00:28:04,VALID,1008.73,VALID,0,VALID,93.5146,VALID,0,VALID,24.2573,VALID,95,VALID,1.25977,
2008-09-02, 00:29:04,VALID,1008.78,VALID,0,VALID,93.568,VALID,0.105969,VALID,24.2573,VALID,109,VALID,1.03594,
2008-09-02, 00:30:04,VALID,1008.78,VALID,0,VALID,93.6366,VALID,0,VALID,24.2573,VALID,89,VALID,1.01289,
2008-09-02, 00:31:04,VALID,1008.78,VALID,0,VALID,93.7434,VALID,0,VALID,24.2768,VALID,99,VALID,0.978516,
2008-09-02, 00:32:04,VALID,1008.77,VALID,0,VALID,93.812,VALID,0,VALID,24.2573,VALID,74,VALID,0.452734,
2008-09-02, 00:33:04,VALID,1008.81,VALID,0,VALID,93.629,VALID,0.105969,VALID,24.2378,VALID,59,VALID,0.7125,
2008-09-02, 00:34:04,VALID,1008.8,VALID,0,VALID,93.6366,VALID,0.105969,VALID,24.2183,VALID,37,VALID,0.560547,
2008-09-02, 00:35:04,VALID,1008.78,VALID,0,VALID,93.6366,VALID,0,VALID,24.2202,VALID,21,VALID,0.437109,
2008-09-02, 00:36:04,VALID,1008.78,VALID,0,VALID,93.6137,VALID,0,VALID,24.2202,VALID,19,VALID,0.389062,
2008-09-02, 00:37:04,VALID,1008.77,VALID,0,VALID,93.69,VALID,0,VALID,24.1988,VALID,16,VALID,0.224219,
2008-09-02, 00:38:04,VALID,1008.77,VALID,0,VALID,93.7663,VALID,0,VALID,24.2007,VALID,331,VALID,0.308203,
2008-09-02, 00:39:04,VALID,1008.73,VALID,0,VALID,93.8349,VALID,0,VALID,24.2007,VALID,330,VALID,0.264453,
2008-09-02, 00:40:04,VALID,1008.71,VALID,0,VALID,93.7968,VALID,0,VALID,24.1812,VALID,317,VALID,0.426562,
2008-09-02, 00:41:04,VALID,1008.69,VALID,0,VALID,93.8349,VALID,0,VALID,24.2007,VALID,252,VALID,0.258594,
2008-09-02, 00:42:04,VALID,1008.64,VALID,0,VALID,93.873,VALID,0,VALID,24.1812,VALID,302,VALID,0.333984,
2008-09-02, 00:43:04,VALID,1008.62,VALID,0,VALID,93.9417,VALID,0,VALID,24.1812,VALID,302,VALID,0.0148437,
2008-09-02, 00:44:04,VALID,1008.6,VALID,0,VALID,93.9645,VALID,0,VALID,24.1812,VALID,302,VALID,0.346094,
2008-09-02, 00:45:04,VALID,1008.61,VALID,0,VALID,93.9035,VALID,0,VALID,24.1812,VALID,302,VALID,0.225391,
2008-09-02, 00:46:04,VALID,1008.58,VALID,0,VALID,93.8502,VALID,0,VALID,24.1617,VALID,302,VALID,0.219922,
2008-09-02, 00:47:04,VALID,1008.6,VALID,0,VALID,93.7968,VALID,0,VALID,24.1812,VALID,305,VALID,0.25,
2008-09-02, 00:48:04,VALID,1008.62,VALID,0,VALID,93.6824,VALID,0,VALID,24.1617,VALID,23,VALID,0.717578,
2008-09-02, 00:49:04,VALID,1008.64,VALID,0,VALID,93.3468,VALID,0,VALID,24.1227,VALID,15,VALID,0.233984,
2008-09-02, 00:50:04,VALID,1008.66,VALID,0,VALID,93.3316,VALID,0,VALID,24.1227,VALID,20,VALID,0.382422,
2008-09-02, 00:51:04,VALID,1008.64,VALID,0.5,VALID,93.2325,VALID,0,VALID,24.1227,VALID,325,VALID,0.706641,
2008-09-02, 00:52:04,VALID,1008.63,VALID,0,VALID,93.2248,VALID,0,VALID,24.1032,VALID,302,VALID,0.485938,
2008-09-02, 00:53:04,VALID,1008.6,VALID,0,VALID,93.3545,VALID,0,VALID,24.1227,VALID,292,VALID,0.413672,
2008-09-02, 00:54:04,VALID,1008.57,VALID,0,VALID,93.1638,VALID,0,VALID,24.0837,VALID,302,VALID,0.590234,
2008-09-02, 00:55:04,VALID,1008.56,VALID,0,VALID,93.1562,VALID,0,VALID,24.0837,VALID,335,VALID,0.40625,
2008-09-02, 00:56:04,VALID,1008.57,VALID,0,VALID,93.1333,VALID,0,VALID,24.0837,VALID,314,VALID,0.782812,
2008-09-02, 00:57:04,VALID,1008.56,VALID,0,VALID,92.8893,VALID,0,VALID,24.0837,VALID,310,VALID,0.708203,
2008-09-02, 00:58:04,VALID,1008.54,VALID,0,VALID,92.7978,VALID,0,VALID,24.0837,VALID,300,VALID,1.02578,
2008-09-02, 00:59:04,VALID,1008.51,VALID,0,VALID,92.8741,VALID,0,VALID,24.0837,VALID,295,VALID,0.884375,
2008-09-02, 01:00:04,VALID,1008.51,VALID,0,VALID,93.0189,VALID,0,VALID,24.1032,VALID,308,VALID,0.401563,
2008-09-02, 01:01:04,VALID,1008.52,VALID,0,VALID,93.1486,VALID,0,VALID,24.1032,VALID,37,VALID,0.764063,
2008-09-02, 01:02:04,VALID,1008.5,VALID,0,VALID,93.0876,VALID,0,VALID,24.0643,VALID,13,VALID,0.333984,
2008-09-02, 01:03:04,VALID,1008.5,VALID,0,VALID,93.1638,VALID,0,VALID,24.0643,VALID,321,VALID,0.365625,
2008-09-02, 01:04:04,VALID,1008.46,VALID,0,VALID,93.1943,VALID,0,VALID,24.0643,VALID,292,VALID,0.530469,
2008-09-02, 01:05:04,VALID,1008.42,VALID,0,VALID,93.2096,VALID,0,VALID,24.0643,VALID,305,VALID,0.573828,
2008-09-02, 01:06:04,VALID,1008.44,VALID,0,VALID,93.1715,VALID,0,VALID,24.0448,VALID,324,VALID,0.259766,
2008-09-02, 01:07:04,VALID,1008.42,VALID,0,VALID,93.1333,VALID,0,VALID,24.0448,VALID,351,VALID,0.565625,
2008-09-02, 01:08:04,VALID,1008.38,VALID,0,VALID,93.0418,VALID,0,VALID,24.0253,VALID,303,VALID,0.648438,
2008-09-02, 01:09:04,VALID,1008.37,VALID,0,VALID,93.141,VALID,0,VALID,24.0253,VALID,331,VALID,0.588281,
2008-09-02, 01:10:04,VALID,1008.32,VALID,0,VALID,93.0799,VALID,0,VALID,24.0253,VALID,302,VALID,0.685156,
2008-09-02, 01:11:04,VALID,1008.34,VALID,0,VALID,93.0571,VALID,0,VALID,24.0253,VALID,313,VALID,0.589844,
2008-09-02, 01:12:04,VALID,1008.35,VALID,0,VALID,93.1486,VALID,0.105969,VALID,24.0058,VALID,312,VALID,0.556641,
2008-09-02, 01:13:04,VALID,1008.33,VALID,0,VALID,93.0647,VALID,0,VALID,23.9863,VALID,344,VALID,0.683594,
2008-09-02, 01:14:04,VALID,1008.34,VALID,0,VALID,93.2401,VALID,0,VALID,23.9863,VALID,306,VALID,0.158203,
2008-09-02, 01:15:04,VALID,1008.36,VALID,0,VALID,93.3316,VALID,0,VALID,24.0058,VALID,306,VALID,0.264062,
2008-09-02, 01:16:04,VALID,1008.36,VALID,0,VALID,93.4307,VALID,0,VALID,24.0058,VALID,306,VALID,0.0882813,
2008-09-02, 01:17:04,VALID,1008.33,VALID,0,VALID,93.4994,VALID,0.105969,VALID,24.0058,VALID,311,VALID,0.219141,
2008-09-02, 01:18:04,VALID,1008.35,VALID,0,VALID,93.568,VALID,0,VALID,24.0253,VALID,311,VALID,0.00117188,
2008-09-02, 01:19:04,VALID,1008.34,VALID,0,VALID,93.6137,VALID,0,VALID,24.004,VALID,311,VALID,0,
2008-09-02, 01:20:04,VALID,1008.36,VALID,0,VALID,93.6671,VALID,0.105969,VALID,24.0253,VALID,311,VALID,0,
2008-09-02, 01:21:04,VALID,1008.31,VALID,0,VALID,93.5832,VALID,0,VALID,23.9845,VALID,311,VALID,0.216406,
2008-09-02, 01:22:04,VALID,1008.34,VALID,0,VALID,93.4155,VALID,0,VALID,23.9863,VALID,311,VALID,0.40625,
2008-09-02, 01:23:04,VALID,1008.33,VALID,0,VALID,93.3392,VALID,0,VALID,23.9863,VALID,311,VALID,0.00546875,
2008-09-02, 01:24:04,VALID,1008.3,VALID,0,VALID,93.324,VALID,0,VALID,23.965,VALID,73,VALID,0.463672,
2008-09-02, 01:25:04,VALID,1008.3,VALID,0,VALID,93.263,VALID,0,VALID,24.0058,VALID,82,VALID,0.634375,
2008-09-02, 01:26:04,VALID,1008.3,VALID,0,VALID,93.3163,VALID,0,VALID,24.0058,VALID,85,VALID,0.884375,
2008-09-02, 01:27:04,VALID,1008.31,VALID,0,VALID,93.3697,VALID,0,VALID,23.9845,VALID,84,VALID,0.666406,
2008-09-02, 01:28:04,VALID,1008.31,VALID,0,VALID,93.0647,VALID,0,VALID,23.9863,VALID,80,VALID,0.533203,
2008-09-02, 01:29:04,VALID,1008.3,VALID,0,VALID,93.1181,VALID,0,VALID,24.0058,VALID,17,VALID,0.545703,
2008-09-02, 01:30:04,VALID,1008.33,VALID,0,VALID,93.0418,VALID,0,VALID,24.0253,VALID,36,VALID,0.482031,
2008-09-02, 01:31:04,VALID,1008.33,VALID,0,VALID,93.1105,VALID,0,VALID,24.0058,VALID,36,VALID,0.212891,
2008-09-02, 01:32:04,VALID,1008.33,VALID,0,VALID,93.1638,VALID,0,VALID,23.9863,VALID,36,VALID,0.0175781,
2008-09-02, 01:33:04,VALID,1008.31,VALID,0,VALID,93.263,VALID,0,VALID,23.9863,VALID,36,VALID,0,
2008-09-02, 01:34:04,VALID,1008.31,VALID,0,VALID,93.3392,VALID,0,VALID,23.9863,VALID,38,VALID,0.167187,
2008-09-02, 01:35:04,VALID,1008.3,VALID,0,VALID,93.4917,VALID,0,VALID,23.9863,VALID,38,VALID,0.0210938,
2008-09-02, 01:36:04,VALID,1008.29,VALID,0,VALID,93.6137,VALID,0,VALID,24.0058,VALID,38,VALID,0.00078125,
2008-09-02, 01:37:04,VALID,1008.3,VALID,0,VALID,93.6748,VALID,0,VALID,23.9845,VALID,341,VALID,0.548047,
2008-09-02, 01:38:04,VALID,1008.29,VALID,0,VALID,93.6366,VALID,0,VALID,24.0058,VALID,334,VALID,0.424219,
2008-09-02, 01:39:04,VALID,1008.26,VALID,0,VALID,93.5146,VALID,0,VALID,23.9881,VALID,334,VALID,0.405078,
2008-09-02, 01:40:04,VALID,1008.24,VALID,0,VALID,93.5375,VALID,0,VALID,23.9668,VALID,303,VALID,0.271484,
2008-09-02, 01:41:04,VALID,1008.24,VALID,0,VALID,93.69,VALID,0,VALID,23.965,VALID,303,VALID,0.163281,
2008-09-02, 01:42:04,VALID,1008.23,VALID,0,VALID,93.7053,VALID,0,VALID,23.9863,VALID,303,VALID,0.416797,
2008-09-02, 01:43:04,VALID,1008.27,VALID,0,VALID,93.7358,VALID,0,VALID,23.9863,VALID,308,VALID,0.151953,
2008-09-02, 01:44:04,VALID,1008.26,VALID,0,VALID,93.8502,VALID,0,VALID,23.9863,VALID,308,VALID,0,
2008-09-02, 01:45:04,VALID,1008.29,VALID,0,VALID,93.8807,VALID,0,VALID,23.9863,VALID,308,VALID,0.107031,
2008-09-02, 01:46:04,VALID,1008.27,VALID,0,VALID,93.8273,VALID,0,VALID,23.965,VALID,81,VALID,0.372266,
2008-09-02, 01:47:04,VALID,1008.28,VALID,0,VALID,93.8349,VALID,0,VALID,23.9863,VALID,81,VALID,0.130469,
2008-09-02, 01:48:04,VALID,1008.25,VALID,0,VALID,93.8425,VALID,0,VALID,24.0058,VALID,81,VALID,0.319922,
2008-09-02, 01:49:04,VALID,1008.24,VALID,0,VALID,93.8807,VALID,0,VALID,24.0058,VALID,84,VALID,0.503516,
2008-09-02, 01:50:04,VALID,1008.25,VALID,0,VALID,93.9035,VALID,0,VALID,24.004,VALID,38,VALID,0.612109,
2008-09-02, 01:51:04,VALID,1008.19,VALID,0,VALID,93.9188,VALID,0,VALID,24.0253,VALID,19,VALID,0.530469,
2008-09-02, 01:52:04,VALID,1008.19,VALID,0,VALID,93.8196,VALID,0,VALID,24.0058,VALID,12,VALID,0.505078,
2008-09-02, 01:53:04,VALID,1008.16,VALID,0,VALID,93.8502,VALID,0,VALID,23.9863,VALID,358,VALID,0.474609,
2008-09-02, 01:54:04,VALID,1008.18,VALID,0,VALID,93.7891,VALID,0,VALID,23.965,VALID,351,VALID,0.419531,
2008-09-02, 01:55:04,VALID,1008.14,VALID,0,VALID,93.8502,VALID,0,VALID,23.9668,VALID,352,VALID,0.0363281,
2008-09-02, 01:56:04,VALID,1008.14,VALID,0,VALID,93.9264,VALID,0,VALID,23.9863,VALID,352,VALID,0.304688,
2008-09-02, 01:57:04,VALID,1008.13,VALID,0,VALID,93.9722,VALID,0,VALID,23.9863,VALID,360,VALID,0.0839844,
2008-09-02, 01:58:04,VALID,1008.12,VALID,0,VALID,94.0484,VALID,0,VALID,23.9668,VALID,58,VALID,0.357422,
2008-09-02, 01:59:04,VALID,1008.11,VALID,0,VALID,94.1323,VALID,0,VALID,23.9863,VALID,87,VALID,0.592188,
2008-09-02, 02:00:04,VALID,1008.09,VALID,0,VALID,94.0255,VALID,0,VALID,23.9278,VALID,78,VALID,0.507031,
2008-09-02, 02:01:04,VALID,1008.11,VALID,0,VALID,93.9569,VALID,0,VALID,23.926,VALID,65,VALID,0.00195313,
2008-09-02, 02:02:04,VALID,1008.09,VALID,0,VALID,94.0332,VALID,0,VALID,24.0058,VALID,71,VALID,0,
2008-09-02, 02:03:04,VALID,1008.09,VALID,0,VALID,94.0713,VALID,0,VALID,23.965,VALID,71,VALID,0,
2008-09-02, 02:04:04,VALID,1008.09,VALID,0,VALID,94.1171,VALID,0.105969,VALID,23.9845,VALID,71,VALID,0,
2008-09-02, 02:05:04,VALID,1008.08,VALID,0,VALID,94.0942,VALID,0,VALID,23.9863,VALID,71,VALID,0.301953,
2008-09-02, 02:06:04,VALID,1008.08,VALID,0,VALID,94.0103,VALID,0,VALID,23.9668,VALID,71,VALID,0.197656,
2008-09-02, 02:07:04,VALID,1008.09,VALID,0,VALID,93.9493,VALID,0,VALID,23.9668,VALID,71,VALID,0.100391,
2008-09-02, 02:08:04,VALID,1008.08,VALID,0,VALID,93.9035,VALID,0,VALID,23.9455,VALID,71,VALID,0.0832031,
2008-09-02, 02:09:04,VALID,1008.09,VALID,0,VALID,93.7815,VALID,0,VALID,23.9455,VALID,71,VALID,0.0730469,
2008-09-02, 02:10:04,VALID,1008.06,VALID,0,VALID,93.7281,VALID,0,VALID,23.9668,VALID,71,VALID,0.502734,
2008-09-02, 02:11:04,VALID,1008.06,VALID,0,VALID,93.6595,VALID,0,VALID,23.9668,VALID,71,VALID,0.21875,
2008-09-02, 02:12:04,VALID,1008.07,VALID,0,VALID,93.6519,VALID,0,VALID,23.9668,VALID,53,VALID,0.55625,
2008-09-02, 02:13:04,VALID,1008.06,VALID,0,VALID,93.6519,VALID,0,VALID,23.9473,VALID,53,VALID,0.398828,
2008-09-02, 02:14:04,VALID,1008.09,VALID,0,VALID,93.5832,VALID,0,VALID,23.926,VALID,59,VALID,0.637891,
2008-09-02, 02:15:04,VALID,1008.09,VALID,0,VALID,93.5451,VALID,0,VALID,23.926,VALID,63,VALID,0.691406,
2008-09-02, 02:16:04,VALID,1008.1,VALID,0,VALID,93.5527,VALID,0,VALID,23.9278,VALID,88,VALID,0.65625,
2008-09-02, 02:17:04,VALID,1008.09,VALID,0,VALID,93.5832,VALID,0,VALID,23.8871,VALID,89,VALID,0.508203,
2008-09-02, 02:18:04,VALID,1008.08,VALID,0,VALID,93.5985,VALID,0,VALID,23.9278,VALID,88,VALID,0.502734,
2008-09-02, 02:19:04,VALID,1008.09,VALID,0,VALID,93.6595,VALID,0,VALID,23.9278,VALID,87,VALID,0.370313,
2008-09-02, 02:20:04,VALID,1008.11,VALID,0,VALID,93.6519,VALID,0,VALID,23.8871,VALID,87,VALID,0.514844,
2008-09-02, 02:21:04,VALID,1008.08,VALID,0,VALID,93.7129,VALID,0,VALID,23.9278,VALID,76,VALID,0.521875,
2008-09-02, 02:22:04,VALID,1008.09,VALID,0,VALID,93.8273,VALID,0,VALID,23.9278,VALID,80,VALID,0.513281,
2008-09-02, 02:23:04,VALID,1008.05,VALID,0,VALID,93.9188,VALID,0,VALID,23.9473,VALID,80,VALID,0.135937,
2008-09-02, 02:24:04,VALID,1008.07,VALID,0,VALID,93.9112,VALID,0,VALID,23.9473,VALID,48,VALID,0.370703,
2008-09-02, 02:25:04,VALID,1008.03,VALID,0,VALID,93.9188,VALID,0,VALID,23.9278,VALID,19,VALID,0.313672,
2008-09-02, 02:26:04,VALID,1008.05,VALID,0,VALID,93.8959,VALID,0,VALID,23.9084,VALID,19,VALID,0.11875,
2008-09-02, 02:27:04,VALID,1008.02,VALID,0,VALID,93.8578,VALID,0,VALID,23.8889,VALID,19,VALID,0.00585938,
2008-09-02, 02:28:04,VALID,1008.04,VALID,0,VALID,93.8654,VALID,0,VALID,23.9084,VALID,44,VALID,0.461328,
2008-09-02, 02:29:04,VALID,1008.06,VALID,0,VALID,93.9569,VALID,0,VALID,23.9084,VALID,53,VALID,0.401172,
2008-09-02, 02:30:04,VALID,1008.05,VALID,0,VALID,93.9264,VALID,0,VALID,23.8871,VALID,55,VALID,0.361328,
2008-09-02, 02:31:04,VALID,1008.06,VALID,0,VALID,93.9264,VALID,0.105969,VALID,23.9065,VALID,55,VALID,0.315625,
2008-09-02, 02:32:04,VALID,1008.02,VALID,0,VALID,93.9645,VALID,0.105969,VALID,23.8852,VALID,55,VALID,0,
2008-09-02, 02:33:04,VALID,1008.03,VALID,0,VALID,94.0179,VALID,0.105969,VALID,23.9065,VALID,55,VALID,0.0015625,
2008-09-02, 02:34:04,VALID,1007.99,VALID,0,VALID,93.995,VALID,0.105969,VALID,23.8871,VALID,55,VALID,0.265625,
2008-09-02, 02:35:04,VALID,1008,VALID,0,VALID,93.9874,VALID,0.105969,VALID,23.8871,VALID,55,VALID,0.0382813,
2008-09-02, 02:36:04,VALID,1007.99,VALID,0,VALID,93.9798,VALID,0.105969,VALID,23.9065,VALID,55,VALID,0,
2008-09-02, 02:37:04,VALID,1007.98,VALID,0,VALID,93.9798,VALID,0.105969,VALID,23.8676,VALID,55,VALID,0,
2008-09-02, 02:38:04,VALID,1007.98,VALID,0,VALID,93.9874,VALID,0.105969,VALID,23.8676,VALID,55,VALID,0,
2008-09-02, 02:39:04,VALID,1007.97,VALID,0,VALID,94.0484,VALID,0.105969,VALID,23.8676,VALID,55,VALID,0.190234,
2008-09-02, 02:40:04,VALID,1008,VALID,0,VALID,94.1171,VALID,0.105969,VALID,23.8676,VALID,55,VALID,0.264062,
2008-09-02, 02:41:04,VALID,1007.96,VALID,0,VALID,94.1781,VALID,0.105969,VALID,23.8676,VALID,60,VALID,0.0863281,
2008-09-02, 02:42:04,VALID,1007.95,VALID,0,VALID,94.2086,VALID,0.105969,VALID,23.8481,VALID,111,VALID,0.653516,
2008-09-02, 02:43:04,VALID,1007.94,VALID,0,VALID,94.1704,VALID,0.105969,VALID,23.8481,VALID,111,VALID,0.519922,
2008-09-02, 02:44:04,VALID,1007.96,VALID,0,VALID,94.1933,VALID,0.105969,VALID,23.8871,VALID,111,VALID,0.460938,
2008-09-02, 02:45:04,VALID,1007.96,VALID,0,VALID,94.1171,VALID,0.105969,VALID,23.8871,VALID,111,VALID,0.509766,
2008-09-02, 02:46:04,VALID,1007.93,VALID,0,VALID,94.1323,VALID,0,VALID,23.8889,VALID,134,VALID,0.567187,
2008-09-02, 02:47:04,VALID,1007.95,VALID,0,VALID,94.2009,VALID,0,VALID,23.9278,VALID,135,VALID,0.502734,
2008-09-02, 02:48:04,VALID,1007.91,VALID,0,VALID,94.1171,VALID,0,VALID,23.9084,VALID,135,VALID,0.272266,
2008-09-02, 02:49:04,VALID,1007.86,VALID,0,VALID,94.1704,VALID,0,VALID,23.9278,VALID,135,VALID,0,
2008-09-02, 02:50:04,VALID,1007.87,VALID,0,VALID,94.2467,VALID,0,VALID,23.9686,VALID,135,VALID,0,
2008-09-02, 02:51:04,VALID,1007.85,VALID,0,VALID,94.1704,VALID,0,VALID,23.9278,VALID,135,VALID,0.01875,
2008-09-02, 02:52:04,VALID,1007.86,VALID,0,VALID,94.1933,VALID,0,VALID,23.9686,VALID,56,VALID,0.254687,
2008-09-02, 02:53:04,VALID,1007.86,VALID,0,VALID,94.1476,VALID,0,VALID,23.9473,VALID,56,VALID,0,
2008-09-02, 02:54:04,VALID,1007.85,VALID,0,VALID,94.1857,VALID,0,VALID,23.9473,VALID,56,VALID,0,
2008-09-02, 02:55:04,VALID,1007.86,VALID,0,VALID,94.2238,VALID,0,VALID,23.9686,VALID,56,VALID,0,
2008-09-02, 02:56:04,VALID,1007.85,VALID,0,VALID,94.1476,VALID,0,VALID,23.9686,VALID,51,VALID,0.0648438,
2008-09-02, 02:57:04,VALID,1007.88,VALID,0,VALID,94.1399,VALID,0,VALID,23.9686,VALID,44,VALID,0.301562,
2008-09-02, 02:58:04,VALID,1007.88,VALID,0,VALID,94.1247,VALID,0,VALID,23.9473,VALID,352,VALID,0.328516,
2008-09-02, 02:59:04,VALID,1007.88,VALID,0,VALID,94.1018,VALID,0,VALID,23.9881,VALID,312,VALID,0.319922,
2008-09-02, 03:00:04,VALID,1007.87,VALID,0,VALID,94.0255,VALID,0,VALID,23.9668,VALID,312,VALID,0.14375,
2008-09-02, 03:01:04,VALID,1007.84,VALID,0,VALID,93.9645,VALID,0.105969,VALID,23.965,VALID,312,VALID,0.350391,
2008-09-02, 03:02:04,VALID,1007.83,VALID,0,VALID,93.9188,VALID,0,VALID,23.965,VALID,327,VALID,0.462109,
2008-09-02, 03:03:04,VALID,1007.85,VALID,0,VALID,93.8578,VALID,0.105969,VALID,23.9455,VALID,344,VALID,0.4125,
2008-09-02, 03:04:04,VALID,1007.81,VALID,0,VALID,93.812,VALID,0.105969,VALID,23.926,VALID,360,VALID,0.544531,
2008-09-02, 03:05:04,VALID,1007.82,VALID,0,VALID,93.7968,VALID,0.105969,VALID,23.926,VALID,3,VALID,0.344922,
2008-09-02, 03:06:04,VALID,1007.83,VALID,0,VALID,93.8044,VALID,0.105969,VALID,23.9065,VALID,3,VALID,0.202734,
2008-09-02, 03:07:04,VALID,1007.81,VALID,0,VALID,93.8273,VALID,0,VALID,23.8871,VALID,3,VALID,0.100781,
2008-09-02, 03:08:04,VALID,1007.82,VALID,0,VALID,93.9645,VALID,0.105969,VALID,23.8871,VALID,357,VALID,0.223828,
2008-09-02, 03:09:04,VALID,1007.83,VALID,0,VALID,94.0713,VALID,0,VALID,23.9065,VALID,242,VALID,0.339844,
2008-09-02, 03:10:04,VALID,1007.81,VALID,0,VALID,94.0789,VALID,0.105969,VALID,23.9065,VALID,253,VALID,0.292578,
2008-09-02, 03:11:04,VALID,1007.78,VALID,0,VALID,94.1552,VALID,0.105969,VALID,23.9455,VALID,249,VALID,0.155469,
2008-09-02, 03:12:04,VALID,1007.78,VALID,0,VALID,94.1628,VALID,0.105969,VALID,23.9668,VALID,249,VALID,0,
2008-09-02, 03:13:04,VALID,1007.75,VALID,0,VALID,94.1247,VALID,0.105969,VALID,23.9455,VALID,291,VALID,0.56875,
2008-09-02, 03:14:04,VALID,1007.71,VALID,0,VALID,94.0255,VALID,0,VALID,23.9455,VALID,280,VALID,0.0707031,
2008-09-02, 03:15:04,VALID,1007.69,VALID,0,VALID,93.9798,VALID,0.105969,VALID,23.965,VALID,280,VALID,0.138281,
2008-09-02, 03:16:04,VALID,1007.7,VALID,0,VALID,93.9798,VALID,0,VALID,23.9845,VALID,310,VALID,0.202734,
2008-09-02, 03:17:04,VALID,1007.71,VALID,0,VALID,93.995,VALID,0,VALID,24.0058,VALID,352,VALID,0.507813,
2008-09-02, 03:18:04,VALID,1007.71,VALID,0,VALID,93.934,VALID,0,VALID,23.9845,VALID,19,VALID,0.645703,
2008-09-02, 03:19:04,VALID,1007.75,VALID,0,VALID,93.9798,VALID,0.105969,VALID,24.0253,VALID,12,VALID,0.262891,
2008-09-02, 03:20:04,VALID,1007.73,VALID,0,VALID,94.0179,VALID,0.105969,VALID,24.004,VALID,12,VALID,0.238672,
2008-09-02, 03:21:04,VALID,1007.75,VALID,0,VALID,94.0179,VALID,0,VALID,23.9845,VALID,317,VALID,0.498047,
2008-09-02, 03:22:04,VALID,1007.71,VALID,0,VALID,94.0255,VALID,0.105969,VALID,24.0058,VALID,343,VALID,0.576563,
2008-09-02, 03:23:04,VALID,1007.75,VALID,0,VALID,94.1018,VALID,0.105969,VALID,24.0253,VALID,308,VALID,0.349219,
2008-09-02, 03:24:04,VALID,1007.72,VALID,0,VALID,94.0637,VALID,0.105969,VALID,23.965,VALID,308,VALID,0.310156,
2008-09-02, 03:25:04,VALID,1007.7,VALID,0,VALID,94.1323,VALID,0,VALID,24.004,VALID,177,VALID,0.135547,
2008-09-02, 03:26:04,VALID,1007.71,VALID,0,VALID,94.1171,VALID,0.105969,VALID,24.004,VALID,196,VALID,0.333594,
2008-09-02, 03:27:04,VALID,1007.67,VALID,0,VALID,94.0332,VALID,0.105969,VALID,24.004,VALID,320,VALID,0.576563,
2008-09-02, 03:28:04,VALID,1007.7,VALID,0,VALID,94.0408,VALID,0,VALID,24.0235,VALID,338,VALID,0.364844,
2008-09-02, 03:29:04,VALID,1007.68,VALID,0,VALID,94.0027,VALID,0,VALID,24.004,VALID,359,VALID,0.469531,
2008-09-02, 03:30:04,VALID,1007.68,VALID,0,VALID,93.9722,VALID,0.105969,VALID,24.004,VALID,349,VALID,0.410937,
2008-09-02, 03:31:04,VALID,1007.69,VALID,0,VALID,93.934,VALID,0.105969,VALID,23.9845,VALID,338,VALID,0.565625,
2008-09-02, 03:32:04,VALID,1007.71,VALID,0,VALID,93.9493,VALID,0.105969,VALID,23.9845,VALID,343,VALID,0.21875,
2008-09-02, 03:33:04,VALID,1007.7,VALID,0,VALID,93.9188,VALID,0.105969,VALID,24.004,VALID,333,VALID,0.532422,
2008-09-02, 03:34:04,VALID,1007.72,VALID,0,VALID,93.9493,VALID,0.105969,VALID,23.9845,VALID,335,VALID,0.205859,
2008-09-02, 03:35:04,VALID,1007.73,VALID,0,VALID,94.056,VALID,0.105969,VALID,23.9845,VALID,335,VALID,0.0699219,
2008-09-02, 03:36:04,VALID,1007.71,VALID,0,VALID,94.0408,VALID,0.105969,VALID,23.965,VALID,328,VALID,0.391797,
2008-09-02, 03:37:04,VALID,1007.72,VALID,0,VALID,94.0179,VALID,0,VALID,23.9845,VALID,334,VALID,0.461719,
2008-09-02, 03:38:04,VALID,1007.7,VALID,0,VALID,93.9264,VALID,0.105969,VALID,23.9455,VALID,321,VALID,0.280859,
2008-09-02, 03:39:04,VALID,1007.71,VALID,0,VALID,93.9264,VALID,0.105969,VALID,23.9455,VALID,321,VALID,0,
2008-09-02, 03:40:04,VALID,1007.7,VALID,0,VALID,93.9569,VALID,0,VALID,23.9668,VALID,321,VALID,0,
2008-09-02, 03:41:04,VALID,1007.73,VALID,0,VALID,93.9874,VALID,0.105969,VALID,23.965,VALID,321,VALID,0.0542969,
2008-09-02, 03:42:04,VALID,1007.71,VALID,0,VALID,93.995,VALID,0.105969,VALID,23.965,VALID,255,VALID,0.274609,